Lexington Weather

Lexington, Massachusetts, USA

44°F
1/23/2020 12:40pm 
  • Lexington Conditions: Mostly cloudy
  • Temperature: 43.9°F / 6.6°CWarmer 3.8°F than last hour.
  • Dew Point: 20.5°FDecreased 1.4°Fsince last hour.
  • Relative Humidity: 39%Decreased 9.0% since last hour.
  • Wind: Calm, 10-min avg: Calm, gust: None
  • Barometer: 30.29 inFalling 0.03  inHg/hr Falling Slowly
  • Visibility: 10 miles
  • Rain Today: 0.02 in
  •   

Regional Weather Roundup
for Boston / Norton, MA

        
000
ASUS41 KBOX 202101
RWRBOX

REGIONAL WEATHER ROUNDUP
NATIONAL WEATHER SERVICE BOSTON/NORTON MA
400 PM EST MON JAN 20 2020

NOTE:  "FAIR" INDICATES FEW OR NO CLOUDS BELOW 12,000 FEET WITH NO 
SIGNIFICANT WEATHER AND/OR OBSTRUCTIONS TO VISIBILITY.

MAZALL-202200-
EASTERN MASSACHUSETTS
  
CITY           SKY/WX    TMP DP  RH WIND       PRES   REMARKS
BOSTON         FAIR      29  -3  25 NW18      30.21R WCI  16          
BEVERLY        FAIR      26   1  34 NW12      30.19R WCI  16          
LAWRENCE       FAIR      24  -2  32 NW12G18   30.22R WCI  13          
BEDFORD        FAIR      27  -4  26 NW13      30.20R WCI  16          
BLUE HILL      NOT AVBL                                               
NORWOOD        FAIR      31  -3  23 NW10G17   30.20R WCI  22          
MARSHFIELD     NOT AVBL                                               
PLYMOUTH       FAIR      28   2  32 NW10      30.19R WCI  19          
TAUNTON        FAIR      29  -3  25 N6        30.20R WCI  23          
NEW BEDFORD    FAIR      28   2  32 VRB7      30.19R WCI  21          
$$

MAZALL-202200-
CAPE COD AND THE ISLANDS
  
CITY           SKY/WX    TMP DP  RH WIND       PRES   REMARKS
FALMOUTH       CLEAR     28   7  40 N9        30.18R WCI  20          
HYANNIS        NOT AVBL                                               
CHATHAM        FAIR      26  15  63 VRB6      30.18R WCI  19          
PROVINCETOWN   FAIR      27  14  58 NW15      30.19R WCI  15          
NANTUCKET      CLOUDY    28  16  60 N16       30.18R WCI  16          
MARTHAS VNYRD  FAIR      29   9  43 NW14      30.19R WCI  18          
$$
 
MAZALL-202200-
CENTRAL AND WESTERN MASSACHUSETTS
  
CITY           SKY/WX    TMP DP  RH WIND       PRES   REMARKS
WORCESTER      FAIR      24  -5  27 NW14G21   30.16R WCI  12          
FITCHBURG      FAIR      25  -1  32 NW13      30.21R WCI  14          
ORANGE         FAIR      24  -4  29 N14       30.23R WCI  12          
SPRINGFIELD    NOT AVBL                                               
WESTFIELD      FAIR      24   0  35 NW16      30.25R WCI  11          
NORTH ADAMS    FAIR      19   0  43 NW6       30.27R WCI  11          
PITTSFIELD     FAIR      18  -2  41 NW8       30.21S WCI   8          
$$
 
RIZALL-202200-
RHODE ISLAND
  
CITY           SKY/WX    TMP DP  RH WIND       PRES   REMARKS
PROVIDENCE     FAIR      29  -1  27 NW13      30.21R WCI  19          
NEWPORT        FAIR      29   2  31 NW7       30.19R WCI  22          
BLOCK ISLAND   FAIR      27   5  39 N9        30.22R WCI  18          
SMITHFIELD     FAIR      25   2  37 NW9       30.19R WCI  15          
WESTERLY       FAIR      32  -2  23 N10       30.22R WCI  24          
$$
 
CTZALL-202200-
CONNECTICUT
  
CITY           SKY/WX    TMP DP  RH WIND       PRES   REMARKS
BRADLEY INTL   FAIR      26   1  34 NW12      30.25R WCI  16          
HARTFORD       FAIR      28   1  31 NW12G21   30.26R WCI  18          
BRIDGEPORT     FAIR      29  -3  25 NW15G24   30.27R WCI  18          
DANBURY        FAIR      26  -4  27 N10       30.27R WCI  16          
GROTON         NOT AVBL                                               
NEW HAVEN      FAIR      30  -3  24 NW9G21    30.25R WCI  22          
CHESTER        NOT AVBL                                               
MERIDEN        FAIR      27  -1  30 NW10G21   30.26R WCI  17          
WILLIMANTIC    FAIR      27   2  34 N9        30.24R WCI  18          
OXFORD         FAIR      24  -1  33 NW12G21   30.23R WCI  13          
$$

MEZ002-015-021-024-NHZ003-005-008-011-012-014-VTZ005-008-202200-
NORTHERN NEW ENGLAND
  
CITY           SKY/WX    TMP DP  RH WIND       PRES   REMARKS
PORTLAND ME    FAIR      26  -3  28 N9        30.17R WCI  17          
BANGOR ME      FAIR      21   0  39 NW14G20   30.12R WCI   8          
CONCORD NH     FAIR      21  -4  33 NW13      30.20S WCI   9          
MANCHESTER NH  FAIR      24  -6  26 NW13G21   30.20R WCI  12          
NASHUA NH      FAIR      25   0  33 NW10      30.22R WCI  15          
PORTSMOUTH NH  CLEAR     24  -6  26 W13       30.17R WCI  12          
JAFFREY NH     FAIR      21  -5  31 NW5       30.17R WCI  15          
KEENE NH       FLURRIES  22  -3  33 NW8G16    30.24R WCI  12          
BURLINGTON VT  FAIR      17   1  49 S6        30.29S WCI   9          
MT. WASHINGTON NOT AVBL                                               
$$

NYZ052-076-202200-
EASTERN NEW YORK
  
CITY           SKY/WX    TMP DP  RH WIND       PRES   REMARKS
ALBANY         FAIR      21  -1  38 W14G22    30.33S WCI   8          
NEW YORK CITY  FAIR      31   3  30 NW18      30.28R WCI  19          
$$
 
ANZALL-202200-
MARINE OBSERVATIONS
  
STATION/POSITION TIME  TEMP    WIND        PRES    VSBY  WAVE
                       AIR SEA DIR/SP/G                  HT/PER
                 (UTC) (F)     (DEG/KT/KT) (MB)    (MI)  (FT/S)
BOSTON BUOY      1950   27 43  310/ 16/ 19 1021.3          4/ 6
BUZZARDS BAY     2000   27     340/ 16/ 19 1022.6R
NANTUCKET SOUND  NOT AVBL
MASS BAY-STELLWA 2004   27 42  340/ 16/ 19 1019.8S  1 7/8  4/ 5
ISLE OF SHOALS   2000   26     300/ 16/ 18 1021.1R
S OF BLOCK IS    2030      45                N/A           5/11
$$

......................KEY.........................
  SKY/WX - SKY CONDITION/PRESENT WEATHER
  TMP    - TEMPERATURE IN FAHRENHEIT
  DWPT   - DEWPOINT IN FAHRENHEIT
  RH     - RELATIVE HUMIDITY IN PERCENT
  WIND   - DIRECTION AND SPEED IN MPH
  PRES   - MEAN SEA LEVEL PRESSURE IN INCHES OF HG
  WCI    - WIND CHILL INDEX
  VSB    - VISIBILITY IN MILES
  HX     - HEAT INDEX
  TC     - TEMPERATURE IN CELSIUS
  VRB    - VARIABLE WIND DIRECTION
  N/A    - NOT AVAILABLE
  
      

Other recent Regional Weather Roundups

Thu Jan 23, 12:10pm

Thu Jan 23, 12:01pm

Thu Jan 23, 11:10am

Thu Jan 23, 11:00am

Thu Jan 23, 10:10am

Thu Jan 23, 10:00am

Thu Jan 23, 9:10am

Thu Jan 23, 9:00am

Thu Jan 23, 8:10am

Thu Jan 23, 8:00am

Thu Jan 23, 7:10am

Thu Jan 23, 7:01am

Thu Jan 23, 6:10am

Thu Jan 23, 6:00am

Thu Jan 23, 5:10am

Thu Jan 23, 5:00am

Thu Jan 23, 4:10am

Thu Jan 23, 4:01am

Thu Jan 23, 3:10am

Thu Jan 23, 3:00am

Thu Jan 23, 2:10am

Thu Jan 23, 2:00am

Thu Jan 23, 1:10am

Thu Jan 23, 1:00am

Thu Jan 23, 12:10am

Thu Jan 23, 12:00am

Wed Jan 22, 11:10pm

Wed Jan 22, 11:01pm

Wed Jan 22, 10:10pm

Wed Jan 22, 10:00pm

Wed Jan 22, 9:10pm

Wed Jan 22, 9:00pm

Wed Jan 22, 8:10pm

Wed Jan 22, 8:01pm

Wed Jan 22, 7:10pm

Wed Jan 22, 7:00pm

Wed Jan 22, 6:10pm

Wed Jan 22, 6:01pm

Wed Jan 22, 5:10pm

Wed Jan 22, 5:00pm

Wed Jan 22, 4:10pm

Wed Jan 22, 4:00pm

Wed Jan 22, 3:10pm

Wed Jan 22, 3:00pm

Wed Jan 22, 2:10pm

Wed Jan 22, 2:00pm

Wed Jan 22, 1:10pm

Wed Jan 22, 1:00pm

Wed Jan 22, 12:10pm

Wed Jan 22, 12:00pm

Wed Jan 22, 11:10am

Wed Jan 22, 11:00am

Wed Jan 22, 10:10am

Wed Jan 22, 10:01am

Wed Jan 22, 9:10am

Wed Jan 22, 9:00am

Wed Jan 22, 8:10am

Wed Jan 22, 8:00am

Wed Jan 22, 7:10am

Wed Jan 22, 7:00am

Wed Jan 22, 6:10am

Wed Jan 22, 6:00am

Wed Jan 22, 5:10am

Wed Jan 22, 5:00am

Wed Jan 22, 4:10am

Wed Jan 22, 4:00am

Wed Jan 22, 3:10am

Wed Jan 22, 3:01am

Wed Jan 22, 2:10am

Wed Jan 22, 2:00am

Wed Jan 22, 1:10am

Wed Jan 22, 1:00am

Wed Jan 22, 12:10am

Wed Jan 22, 12:00am

Tue Jan 21, 11:10pm

Tue Jan 21, 11:00pm

Tue Jan 21, 10:10pm

Tue Jan 21, 10:00pm

Tue Jan 21, 9:10pm

Tue Jan 21, 9:01pm

Tue Jan 21, 8:10pm

Tue Jan 21, 8:00pm

Tue Jan 21, 7:10pm

Tue Jan 21, 7:00pm

Tue Jan 21, 6:10pm

Tue Jan 21, 6:01pm

Tue Jan 21, 5:10pm

Tue Jan 21, 5:00pm

Tue Jan 21, 4:10pm

Tue Jan 21, 4:00pm

Tue Jan 21, 3:10pm

Tue Jan 21, 3:01pm

Tue Jan 21, 2:10pm

Tue Jan 21, 2:00pm

Tue Jan 21, 1:10pm

Tue Jan 21, 1:00pm

Tue Jan 21, 12:10pm

Tue Jan 21, 12:00pm

Tue Jan 21, 11:10am

Tue Jan 21, 11:00am

Tue Jan 21, 10:10am

Tue Jan 21, 10:00am

Tue Jan 21, 9:10am

Tue Jan 21, 9:00am

Tue Jan 21, 8:10am

Tue Jan 21, 8:00am

Tue Jan 21, 7:10am

Tue Jan 21, 7:00am

Tue Jan 21, 6:10am

Tue Jan 21, 6:00am

Tue Jan 21, 5:10am

Tue Jan 21, 5:00am

Tue Jan 21, 4:10am

Tue Jan 21, 4:00am

Tue Jan 21, 3:10am

Tue Jan 21, 3:00am

Tue Jan 21, 2:10am

Tue Jan 21, 2:01am

Tue Jan 21, 1:10am

Tue Jan 21, 1:00am

Tue Jan 21, 12:10am

Tue Jan 21, 12:00am

Mon Jan 20, 11:10pm

Mon Jan 20, 11:00pm

Mon Jan 20, 10:10pm

Mon Jan 20, 10:00pm

Mon Jan 20, 9:10pm

Mon Jan 20, 9:00pm

Mon Jan 20, 8:10pm

Mon Jan 20, 8:00pm

Mon Jan 20, 7:10pm

Mon Jan 20, 7:00pm

Mon Jan 20, 6:10pm

Mon Jan 20, 6:00pm

Mon Jan 20, 5:10pm

Mon Jan 20, 5:00pm

Mon Jan 20, 4:10pm

Mon Jan 20, 3:10pm

Mon Jan 20, 3:00pm

Mon Jan 20, 2:10pm

Mon Jan 20, 2:00pm

Mon Jan 20, 1:10pm

Mon Jan 20, 1:00pm

Meta data:

ID: 891f19d5-d1ff-42e8-af9c-80c0cd3d5356
Link: https://api.weather.gov/products/891f19d5-d1ff-42e8-af9c-80c0cd3d5356